Theta_e
347 345 344 344 343 344 345 347 347 339 338 339 338 335 330 323 322 319 320 320 325 333 342 337 338 343 346 348 349 347 346 351 355 349 348 347 347 348 346 346 344 344 344 345 345 346 348 348 349 350 349 348 348 350 350 350 350 351 350 350 350 350 349 348 347 346 346 346 345 345 347 349 351 352
346 349 348 345 345 345 346 348 346 343 342 340 339 336 334 331 329 323 321 320 324 329 334 337 337 341 346 349 351 349 351 355 356 350 349 349 349 346 345 346 346 345 344 343 342 343 344 343 343 341 340 341 344 347 349 350 349 350 348 347 347 346 345 344 342 342 342 343 343 343 343 345 348 349
347 346 347 347 346 346 346 348 346 345 342 342 339 337 339 335 332 329 324 324 326 334 334 336 340 342 344 349 351 353 353 355 355 351 351 352 353 351 352 349 348 346 344 342 341 339 338 337 337 337 339 341 343 346 347 346 346 345 344 345 343 341 341 339 338 339 340 340 340 340 340 341 342 344
350 347 347 348 348 346 345 345 346 345 343 341 340 339 339 336 334 335 328 327 330 334 339 338 342 345 345 350 351 351 352 355 357 351 353 354 356 355 355 353 349 346 344 342 340 337 335 334 335 339 341 342 344 345 343 341 340 339 338 338 336 337 337 335 336 339 339 338 338 338 339 339 340 341
350 350 349 349 350 348 345 346 347 346 346 344 342 342 339 339 337 337 334 332 335 337 336 340 341 346 348 349 345 348 351 351 353 355 354 354 355 356 356 357 352 349 344 340 337 337 336 336 337 339 340 341 342 341 340 338 335 334 333 331 330 331 333 332 333 335 336 335 336 336 337 338 338 338
353 351 349 350 350 348 348 347 347 349 348 346 345 344 345 342 342 340 338 335 333 337 337 339 343 344 348 348 344 346 349 351 353 354 356 357 355 357 357 357 358 351 345 339 336 337 337 337 336 336 337 338 336 336 334 332 330 330 328 326 328 329 328 328 331 332 332 332 333 334 335 335 335 336
351 350 350 350 350 351 349 349 349 348 348 348 347 346 346 345 344 343 342 338 335 336 339 337 340 341 343 345 349 348 349 349 350 351 354 355 357 357 357 357 358 352 346 341 340 338 337 337 335 333 336 335 331 331 327 327 326 326 325 325 327 326 326 326 328 329 329 329 330 332 332 332 333 333
352 351 350 350 350 349 348 349 349 348 348 348 347 345 344 345 346 345 344 342 341 338 338 339 342 343 342 344 344 348 351 351 352 350 352 351 353 354 355 355 357 356 346 345 342 339 337 335 333 333 333 331 326 325 325 326 327 326 325 324 323 323 324 323 324 326 326 326 327 328 329 330 330 329
352 352 351 351 350 349 348 349 349 349 347 349 348 347 346 346 347 346 346 345 343 341 341 341 340 339 340 342 345 345 349 349 347 346 347 351 351 350 353 358 362 353 349 349 345 341 339 336 334 333 333 332 329 326 326 326 326 325 323 322 321 322 323 323 322 324 323 324 325 324 326 327 328 327
352 353 352 352 352 351 350 350 350 349 349 348 348 347 347 346 344 344 344 345 345 343 344 343 343 340 343 343 343 343 346 347 346 348 349 348 346 351 356 357 360 360 358 355 354 345 341 339 334 330 332 330 329 328 327 327 326 324 321 318 318 320 320 320 322 323 322 322 324 325 324 326 326 327
352 352 352 352 352 352 352 352 351 350 349 350 349 349 349 347 345 346 346 345 343 343 343 342 342 343 342 344 346 343 342 344 345 343 344 343 342 346 349 354 356 356 355 350 348 344 343 340 338 327 327 329 329 329 328 327 326 324 320 318 318 319 318 319 321 321 321 322 322 321 320 320 324 326
353 353 352 352 352 352 353 353 353 352 351 350 350 351 350 348 346 346 346 344 343 342 342 342 344 339 340 341 340 341 342 344 342 342 341 343 345 347 346 348 352 351 348 348 347 345 344 340 336 330 330 332 331 330 330 331 331 327 322 320 322 322 320 319 320 320 320 319 318 318 318 318 321 323
355 355 354 354 353 355 360 359 358 357 357 352 350 351 349 348 347 347 346 345 343 344 343 344 343 341 342 344 343 342 338 339 343 342 346 346 346 344 345 349 349 347 345 343 341 344 344 337 333 332 331 335 336 332 333 332 332 328 322 321 322 322 321 320 320 320 320 319 319 317 317 318 320 322
353 355 355 357 363 354 354 352 349 344 348 354 355 353 350 349 348 347 346 345 345 344 342 343 343 342 343 344 341 340 339 340 339 342 341 341 342 342 347 348 345 347 343 341 339 340 343 333 330 329 330 333 334 332 330 329 328 326 323 322 322 322 321 320 320 320 320 319 318 318 316 317 319 318
352 353 354 355 360 364 358 353 346 343 340 341 342 345 353 358 352 348 347 347 346 344 344 345 342 342 343 345 342 342 346 341 342 342 337 342 340 340 342 345 346 345 344 337 334 336 337 331 329 328 330 331 332 332 330 330 328 324 323 322 322 322 321 322 322 322 320 319 318 318 316 317 318 317
353 352 353 354 355 355 356 357 355 350 344 338 338 338 338 341 346 350 352 350 347 344 345 344 345 343 344 345 341 344 340 343 339 341 340 340 342 342 342 339 341 343 344 337 333 332 332 330 328 326 329 331 331 333 328 327 327 325 323 322 322 322 321 321 322 322 322 321 320 320 318 317 318 317
352 352 352 352 353 355 362 362 358 355 354 344 336 335 337 339 338 334 334 339 351 350 346 346 346 345 345 344 346 346 341 339 338 335 336 337 340 346 346 344 338 341 340 333 329 328 330 326 327 325 329 330 330 331 330 326 327 324 322 322 322 321 321 321 321 321 321 320 319 317 316 314 314 315
353 352 352 351 351 352 354 355 355 355 354 353 351 347 346 346 349 344 336 334 335 342 349 348 347 349 348 348 348 349 343 340 340 338 338 337 341 343 346 343 341 341 337 332 327 322 322 325 325 324 327 330 330 329 328 324 324 324 321 321 320 320 319 319 320 320 320 320 318 317 314 312 312 314
353 353 353 352 351 351 351 351 353 352 352 352 351 350 349 349 349 349 349 348 346 345 346 349 351 352 351 351 352 348 346 345 345 344 343 344 344 345 341 336 338 334 335 329 325 322 322 321 323 324 326 329 328 326 326 324 324 322 320 321 321 319 318 319 319 319 319 319 318 316 314 312 312 312
353 353 353 352 352 352 351 352 341 349 352 349 349 348 349 348 348 349 351 340 343 351 349 349 351 353 354 346 353 350 346 345 344 346 347 345 342 341 338 339 332 333 333 329 324 320 319 320 324 323 325 324 325 326 326 326 325 322 320 320 319 318 317 317 317 317 318 319 318 317 313 310 310 312
352 353 353 352 352 352 351 346 334 333 349 349 348 348 347 348 347 348 350 338 330 330 330 331 335 335 334 334 331 329 331 344 344 344 342 346 344 339 340 335 328 330 330 330 326 321 321 323 322 324 323 323 323 325 327 327 325 321 318 318 318 317 317 316 315 316 317 318 317 316 315 311 312 316
352 353 361 360 352 351 352 338 332 331 340 346 348 347 346 345 345 347 349 350 347 330 326 327 329 330 331 332 331 331 328 327 339 347 344 345 343 343 341 339 332 328 329 332 330 323 322 323 320 320 320 320 320 323 324 326 326 323 319 317 318 317 317 317 315 315 316 317 316 315 312 310 314 323
351 350 357 361 355 354 347 334 331 328 336 345 347 347 346 345 345 347 348 347 348 345 343 345 343 343 341 342 341 343 336 332 340 347 349 348 345 343 341 338 330 331 329 332 331 326 322 322 322 319 318 313 315 319 323 326 324 322 322 321 321 318 319 318 316 314 314 315 314 314 311 310 314 323
348 349 350 350 337 332 332 330 326 324 324 343 346 346 345 344 345 348 347 348 349 349 350 349 348 348 349 348 348 347 347 344 344 344 347 349 348 345 344 341 338 338 329 331 332 326 322 321 321 319 318 315 314 320 321 321 319 321 320 319 318 320 321 320 317 316 314 314 313 313 311 311 312 320
347 348 349 350 340 327 325 324 322 319 318 328 346 347 346 347 348 348 346 349 362 352 350 351 351 351 350 350 349 348 347 347 346 344 343 348 349 348 346 343 338 338 332 333 334 329 327 325 319 317 318 315 315 318 319 316 317 318 321 318 318 320 319 318 319 319 316 315 313 311 312 312 311 314
348 349 350 351 342 328 324 322 319 317 318 319 338 346 331 331 331 344 348 348 348 352 352 350 349 349 348 348 348 348 348 348 348 348 347 346 348 350 350 348 343 337 332 333 331 330 326 322 322 317 314 316 317 316 316 314 314 316 318 318 318 318 319 317 317 318 319 320 319 314 314 313 314 312
349 351 351 353 342 327 321 319 317 316 317 320 329 325 324 325 327 338 343 346 346 346 348 348 348 348 348 347 347 348 348 349 349 350 350 350 348 348 349 348 346 344 333 335 338 332 323 318 321 320 318 315 315 314 311 310 311 316 317 317 317 317 318 316 316 317 318 319 319 314 313 314 315 316
351 351 352 348 332 323 316 315 316 317 318 329 319 317 320 322 330 338 341 342 345 345 344 346 347 348 349 349 349 348 349 350 349 342 342 344 347 345 342 340 341 333 333 337 337 332 325 322 322 318 321 319 314 312 311 310 314 312 313 317 317 315 318 317 315 317 318 317 317 316 316 318 320 322
352 340 332 330 324 322 317 316 316 316 315 315 317 317 318 332 337 339 342 344 345 345 345 346 347 349 349 351 352 353 351 343 340 340 338 338 336 336 336 335 336 337 339 339 338 332 326 323 323 321 319 317 315 313 312 311 312 311 314 315 313 315 318 316 314 313 316 316 315 316 315 316 318 319
336 332 327 325 324 323 326 333 334 335 335 320 319 320 325 333 337 339 342 343 344 345 347 347 347 349 348 348 352 346 338 337 337 337 336 335 335 335 334 333 332 335 338 339 335 328 324 323 325 325 322 319 316 316 313 311 311 310 314 312 315 317 316 315 314 313 314 314 314 313 313 316 318 318
341 339 339 338 330 333 333 334 335 336 337 335 330 329 331 334 336 339 341 343 345 345 347 347 348 348 349 347 344 338 337 336 336 338 337 335 333 332 330 331 331 331 332 333 333 328 325 325 326 326 322 318 317 314 313 311 311 309 310 311 314 309 313 315 314 312 312 313 312 312 313 313 315 318
344 347 340 336 339 339 338 337 337 338 339 340 338 336 334 335 337 341 347 348 346 347 348 349 348 345 342 342 346 342 337 336 336 338 338 335 332 330 330 329 328 328 328 329 328 329 333 324 324 324 323 320 318 314 312 311 310 310 310 312 314 313 314 313 312 311 312 311 309 310 310 311 313 315
340 342 344 344 340 340 341 340 340 340 338 338 338 339 337 336 337 339 341 342 344 346 346 346 347 346 345 345 345 342 337 336 336 335 335 334 332 330 331 330 328 326 325 324 327 324 320 319 325 320 318 316 315 317 316 313 312 310 309 310 310 311 311 310 310 311 311 308 308 307 309 310 311 313
339 340 341 343 344 342 341 342 341 341 340 340 339 338 333 337 339 339 341 342 344 345 345 346 345 346 345 345 343 341 340 337 334 332 330 332 332 330 329 329 327 326 324 323 324 323 320 316 316 318 318 317 316 315 317 315 311 310 311 308 308 309 310 311 310 308 309 307 306 307 307 309 310 312
335 339 340 341 343 343 343 343 343 342 341 340 340 340 338 338 338 337 341 343 343 343 345 344 346 346 346 346 345 343 340 338 334 332 331 332 331 330 330 329 328 326 323 322 322 322 320 318 318 319 318 312 316 316 318 315 312 312 309 308 308 310 312 311 313 309 308 307 305 306 305 304 309 310
334 337 339 341 342 343 343 343 343 343 343 341 341 341 339 338 338 339 340 340 344 344 345 345 344 346 346 346 345 343 340 334 333 332 330 330 331 330 329 329 329 326 324 322 322 322 321 320 319 318 315 312 311 308 309 320 320 312 311 308 306 309 310 309 310 308 306 305 306 303 305 306 308 309
337 337 338 340 342 343 343 344 345 344 344 343 342 343 342 341 340 340 341 335 342 343 344 345 345 345 345 345 343 338 335 333 333 330 330 330 330 329 328 330 330 328 324 323 323 322 322 319 319 316 313 310 310 309 309 308 313 315 315 312 309 310 311 307 307 308 308 306 304 303 303 305 305 307
337 339 339 340 341 343 344 345 344 343 343 343 343 343 343 343 342 342 343 341 340 341 342 343 344 344 345 342 340 338 335 334 334 331 330 330 328 327 327 327 328 327 326 325 323 321 322 321 318 316 313 310 308 308 307 310 313 314 313 315 312 311 312 309 307 307 308 307 305 304 302 303 304 305
337 339 339 340 341 343 343 343 342 341 342 343 342 342 342 341 341 341 341 342 342 342 343 343 343 343 343 341 338 336 334 333 333 332 330 329 328 327 327 327 328 327 327 325 323 321 321 320 320 318 314 312 310 309 310 311 313 315 311 310 313 311 311 312 309 306 305 305 307 307 307 307 307 312
335 338 340 341 341 342 342 341 341 343 343 343 343 343 342 340 341 341 341 340 341 343 344 343 342 339 341 340 337 336 335 334 334 333 331 329 328 328 328 328 328 326 325 325 323 320 319 319 320 318 316 315 316 314 312 311 310 310 311 310 308 313 315 313 310 308 307 308 305 305 306 301 306 303
332 335 337 339 341 342 340 340 342 343 343 343 342 336 341 341 341 341 342 343 342 343 343 344 342 341 339 337 335 335 333 333 334 333 331 329 328 328 328 325 326 325 323 321 322 321 319 320 323 322 323 318 317 316 315 313 312 312 311 314 308 307 309 313 314 311 309 307 307 304 303 304 303 300
333 334 336 339 341 341 341 340 342 342 343 342 341 339 339 340 341 334 339 338 342 343 343 343 342 337 337 336 334 332 335 333 331 330 329 329 328 327 327 326 325 322 321 320 320 322 324 324 325 325 321 318 317 314 312 313 311 311 311 310 313 310 309 308 308 310 311 311 307 302 302 303 302 302
334 335 335 338 341 340 341 340 341 341 342 341 340 340 340 339 340 339 341 342 342 342 342 341 340 338 337 335 335 333 334 332 330 329 328 328 328 328 326 326 325 323 321 321 320 321 320 320 322 323 319 317 317 316 314 314 313 312 310 310 311 313 313 312 309 308 309 311 310 309 306 305 302 301
337 336 337 339 340 340 341 341 341 341 341 340 338 338 338 339 339 340 341 341 341 341 340 338 336 336 335 335 333 333 333 332 331 329 327 326 326 327 327 326 324 322 320 319 318 318 319 319 321 322 318 316 316 315 315 314 313 313 313 311 311 309 312 312 311 310 310 310 311 310 311 310 308 309
337 337 337 339 339 339 340 341 341 340 339 338 337 337 336 337 337 338 339 341 341 340 337 335 334 334 335 334 333 331 331 326 327 328 327 325 325 324 324 324 322 321 320 320 319 318 318 319 319 319 317 317 316 317 318 316 315 314 312 311 313 312 310 311 310 311 311 312 312 310 310 311 312 311
Wind_Speed
3 2 3 3 2 3 1 2 2 2 3 3 4 5 5 5 1 2 2 2 1 2 0 0 1 1 3 4 2 2 3 4 4 3 3 4 4 8 10 11 11 11 12 12 12 12 12 12 12 13 13 13 13 13 13 13 13 12 13 13 13 13 14 13 13 13 14 15 15 16 16 18 20 22
3 2 1 1 2 2 2 4 2 2 3 4 4 4 3 5 4 4 1 3 3 3 2 2 2 3 5 4 5 3 4 6 3 2 3 4 4 8 9 9 10 11 11 11 11 11 11 10 10 11 11 11 11 10 11 11 11 11 11 12 12 12 13 12 11 12 12 13 14 15 16 17 18 18
3 3 4 2 3 2 3 3 2 1 2 3 3 2 4 3 3 5 2 0 3 2 2 3 2 2 4 4 4 5 5 5 4 3 3 4 8 10 8 10 10 10 10 11 10 9 9 10 10 10 9 9 9 10 9 9 9 9 9 10 11 12 12 12 11 11 11 12 13 13 14 15 16 17
3 3 4 4 3 2 2 3 3 3 2 2 3 4 3 3 3 5 4 3 6 3 4 4 6 5 3 5 5 5 5 5 6 4 4 5 7 6 5 7 10 10 11 10 10 10 10 9 8 7 9 8 8 7 8 9 10 9 11 11 12 12 13 15 15 12 12 12 12 13 13 14 15 15
3 4 4 4 4 2 2 3 3 3 3 2 3 3 3 3 3 3 3 3 6 5 3 3 4 3 2 4 1 4 5 6 6 6 4 4 4 5 5 5 8 10 11 10 9 8 7 6 10 10 7 6 7 7 9 10 10 10 11 12 12 15 15 16 14 15 16 16 15 13 13 13 14 14
4 4 4 5 4 3 3 3 4 4 3 3 3 3 5 5 5 3 3 4 2 7 3 4 3 4 0 3 1 3 5 6 5 8 8 6 4 6 5 5 6 9 9 9 8 7 10 11 9 8 6 8 8 8 9 10 10 10 10 12 14 14 14 15 15 15 14 16 17 15 13 13 13 13
4 4 4 5 4 3 3 3 4 3 4 4 4 5 4 4 4 4 4 3 3 5 6 2 4 3 2 2 5 4 3 3 3 5 6 5 6 5 4 4 4 6 8 7 7 9 10 9 8 7 8 8 7 7 8 11 12 11 12 13 13 14 14 15 14 14 15 15 16 16 15 13 13 13
5 5 5 6 5 4 4 4 4 4 3 4 4 4 3 3 4 3 4 4 4 3 4 4 3 3 4 4 3 4 3 3 5 3 4 3 4 5 4 3 3 4 5 5 7 9 8 8 8 9 10 9 7 6 10 12 12 12 12 12 13 13 13 13 14 14 16 15 14 14 13 13 13 12
6 6 6 6 4 4 5 5 5 4 4 4 4 4 4 4 3 3 4 5 4 4 6 5 4 2 2 3 4 3 4 4 3 3 3 3 4 4 4 2 2 3 3 3 6 8 8 8 9 10 10 10 8 7 11 12 11 12 12 12 12 13 13 14 14 14 15 15 15 14 14 13 12 12
6 7 7 6 5 5 6 6 5 4 5 4 4 4 4 4 3 3 3 3 4 4 6 5 6 3 4 4 3 2 1 2 4 5 4 4 2 3 5 4 3 2 2 2 3 5 5 7 9 9 9 10 10 9 10 10 10 11 11 12 13 13 13 13 13 14 14 14 15 15 14 15 13 13
6 6 6 6 6 7 7 7 6 5 5 5 6 6 5 4 3 4 5 4 4 4 5 4 5 6 4 3 6 2 1 1 2 3 5 3 2 2 3 5 3 1 3 2 3 4 4 6 6 8 10 10 10 10 9 9 9 10 12 12 13 13 13 13 13 14 14 14 14 15 15 14 12 12
6 7 6 7 7 8 8 8 7 6 7 4 5 6 4 4 4 5 5 4 4 5 4 5 7 3 4 4 3 1 3 4 2 1 1 4 4 3 2 3 4 3 2 4 3 3 4 5 7 9 8 9 10 9 8 9 10 11 12 12 13 13 13 13 13 14 15 15 15 15 15 15 15 14
7 6 7 7 7 8 11 12 11 9 7 5 7 6 4 4 5 5 5 5 5 5 5 6 5 4 6 6 5 6 2 3 5 3 0 3 3 3 3 5 3 2 1 2 2 4 4 5 6 5 5 6 6 5 7 6 9 11 11 12 12 13 13 13 14 14 15 15 15 14 14 14 15 16
7 8 7 8 12 13 13 13 13 13 12 11 9 8 5 6 5 6 5 6 6 6 6 7 6 6 7 8 4 3 3 3 2 3 3 3 4 3 4 4 2 0 1 3 3 3 3 5 5 5 5 4 3 3 4 4 7 10 12 12 13 13 13 13 13 13 13 14 15 14 13 13 14 15
9 8 8 7 9 10 10 11 14 13 14 13 13 13 11 8 7 6 6 7 6 5 6 6 4 6 8 8 3 4 5 3 3 3 2 4 2 2 3 5 4 1 1 2 2 3 2 3 4 4 4 4 4 2 3 4 8 10 11 11 12 13 13 12 13 12 13 14 15 15 14 13 14 14
9 9 8 7 7 7 8 7 8 10 13 13 14 14 13 13 12 10 9 8 6 5 6 6 7 5 7 8 3 4 2 4 3 4 3 4 5 4 3 2 3 2 2 2 1 2 1 1 1 3 3 3 3 3 4 5 8 11 11 11 11 13 13 13 13 13 12 14 15 16 16 13 13 14
9 8 8 8 7 7 12 10 8 7 8 11 14 14 13 13 13 13 13 11 9 5 5 7 8 8 6 6 7 4 4 3 3 2 3 4 4 5 5 4 3 2 1 1 1 0 1 1 2 3 4 3 3 3 5 6 7 10 11 10 11 12 13 13 13 13 13 13 15 15 15 13 11 12
9 9 8 8 8 8 7 7 7 6 7 7 6 6 7 8 11 13 14 15 16 11 8 7 10 10 5 9 7 4 4 3 4 4 5 4 4 5 6 3 2 0 1 1 1 1 1 1 1 2 4 3 4 2 4 6 7 9 10 11 10 12 12 13 13 14 14 14 15 15 15 14 12 11
10 9 9 9 10 9 7 7 8 7 7 6 6 6 7 8 8 7 7 8 8 8 8 10 11 13 8 9 9 4 5 6 6 5 5 5 5 4 0 1 0 0 1 2 2 2 2 0 2 2 3 5 5 2 4 5 7 8 10 11 11 11 12 13 13 14 14 14 14 15 15 14 13 12
10 10 10 9 10 10 9 11 14 12 8 5 6 7 8 7 7 7 10 11 9 8 8 9 10 11 11 9 7 5 6 5 4 3 1 1 1 2 3 5 0 2 2 2 2 1 2 1 0 2 3 3 4 4 3 5 7 9 10 10 10 12 12 12 13 14 14 14 15 14 15 14 13 12
11 11 11 10 10 10 10 13 14 14 11 7 8 8 8 8 6 9 8 7 12 13 13 14 16 17 16 11 9 8 8 6 4 3 2 6 4 4 5 4 2 4 2 2 2 3 1 1 1 3 3 1 3 4 4 3 5 9 9 10 10 12 12 12 12 14 14 14 15 14 14 15 13 12
10 11 16 14 12 12 12 16 16 15 10 8 9 9 8 7 8 11 8 3 5 9 11 13 14 15 15 14 13 13 11 9 5 6 8 5 5 6 6 6 4 3 1 3 4 2 2 2 1 1 4 2 2 4 3 3 4 6 7 9 10 11 12 12 12 12 12 13 14 14 14 15 12 8
10 10 12 18 16 13 15 18 16 14 11 8 9 9 8 8 10 12 5 5 6 4 4 6 6 8 11 11 9 9 12 10 9 9 10 5 6 7 6 5 1 2 4 4 5 3 2 0 1 1 4 2 3 3 2 4 4 6 5 6 6 10 11 12 11 12 12 12 14 13 12 14 11 7
10 11 10 12 16 18 18 19 17 13 14 10 9 7 8 9 13 9 4 6 7 6 7 8 7 8 7 6 6 6 6 7 9 10 9 7 7 7 6 6 6 5 3 2 6 4 1 1 0 0 1 0 3 5 4 3 1 3 4 6 5 7 8 7 7 10 12 11 13 13 13 13 12 7
11 10 10 10 14 17 18 19 17 13 14 14 10 9 9 11 13 7 4 6 9 7 7 7 7 7 6 6 5 6 6 6 6 7 7 7 7 7 7 6 6 7 4 4 9 4 3 3 2 1 1 1 1 3 5 2 3 3 5 4 5 6 6 6 4 6 8 9 11 13 12 12 10 8
11 11 10 10 14 17 17 18 17 15 14 15 10 11 15 16 13 10 7 5 4 5 6 6 7 7 6 6 6 6 7 6 6 6 6 7 7 7 7 8 7 6 5 5 11 5 6 2 5 4 2 2 2 2 4 6 4 2 4 5 4 5 6 6 6 6 6 7 7 9 10 12 11 9
13 11 11 12 15 16 17 17 16 15 16 11 11 17 17 15 13 8 5 6 6 6 6 6 8 8 7 6 7 7 7 6 6 6 6 5 6 6 6 5 6 7 5 7 6 5 4 2 4 6 4 3 1 1 2 2 4 5 6 5 4 3 4 5 6 6 6 6 7 13 11 10 12 9
12 11 11 12 16 16 17 15 14 15 13 12 17 17 15 11 6 3 5 5 7 7 7 7 8 8 7 7 6 6 6 7 7 4 2 3 4 4 5 3 3 3 6 7 6 5 5 4 4 3 6 6 4 1 1 3 3 2 4 7 4 2 4 5 6 6 6 5 5 6 5 7 7 7
12 14 17 17 15 14 14 15 13 8 10 14 13 14 13 9 4 5 6 7 6 7 9 9 9 8 8 8 8 7 6 2 2 3 3 2 2 3 3 3 2 3 4 5 6 5 5 6 6 4 3 4 5 3 2 2 1 2 3 6 6 6 5 5 5 6 6 5 5 5 6 6 6 7
20 18 17 16 12 11 11 8 6 8 9 13 14 11 7 5 6 6 7 7 7 9 9 9 10 9 6 5 6 1 2 4 5 4 4 5 3 4 6 5 3 2 1 4 4 4 4 5 6 7 5 4 4 5 5 1 1 1 1 2 6 6 1 6 6 5 5 6 5 4 4 5 6 7
11 12 11 8 8 6 8 8 7 7 6 6 7 7 7 7 7 7 8 9 10 9 9 9 9 8 7 3 2 4 5 5 5 5 6 6 6 5 4 5 4 3 1 2 3 2 3 4 5 7 7 4 1 3 3 2 0 2 3 2 2 2 6 6 6 5 5 4 4 4 5 6 6 7
12 10 7 6 3 4 3 3 3 5 5 6 6 7 7 7 7 8 9 8 6 7 7 7 6 5 3 4 6 5 6 6 5 5 6 6 6 5 6 4 4 3 3 2 3 3 3 1 4 5 6 8 6 3 1 1 2 2 3 2 2 5 4 5 6 6 5 4 4 5 5 6 6 7
9 7 6 5 5 5 6 6 6 6 6 6 7 7 7 7 6 6 6 8 8 8 8 9 9 8 7 7 6 6 5 6 6 5 6 5 7 6 5 7 7 7 7 5 2 1 2 2 1 2 3 2 2 6 5 1 5 4 3 4 2 4 5 4 3 5 6 3 3 3 5 5 4 5
9 9 9 9 9 7 7 8 8 8 8 8 8 8 8 7 7 7 7 8 8 8 9 9 8 8 7 8 7 7 8 6 5 7 9 7 7 8 8 7 7 6 7 7 6 5 3 1 2 3 3 1 0 4 6 5 5 3 5 3 2 4 4 3 3 3 4 2 2 3 4 6 5 5
9 8 9 9 8 8 8 9 9 8 8 9 9 8 7 7 8 8 8 9 9 9 10 9 8 8 8 8 8 8 8 8 7 6 6 6 8 8 8 8 7 7 8 7 6 5 4 4 5 3 1 2 2 3 4 4 4 5 1 3 5 5 5 2 1 3 3 4 2 2 3 3 5 5
9 9 9 9 8 8 9 10 8 8 9 9 8 7 7 8 8 9 10 11 10 10 9 8 8 9 8 8 8 9 8 7 7 8 8 7 8 8 7 8 9 9 8 8 7 6 5 5 6 6 5 3 1 2 4 6 7 5 5 3 2 4 4 2 1 2 3 4 2 1 3 3 4 5
9 9 9 9 8 9 10 10 9 8 8 8 9 10 11 11 10 10 9 6 6 7 7 7 8 8 8 8 8 8 7 8 8 8 8 8 8 8 8 7 8 9 8 7 6 7 6 6 6 7 7 5 5 7 6 1 5 6 6 6 3 4 4 1 1 4 4 2 2 0 1 1 2 4
11 10 9 9 9 9 9 8 7 8 9 11 11 10 10 9 6 6 6 6 8 7 7 8 8 8 8 8 7 7 7 7 7 8 8 8 8 7 8 9 8 8 9 8 7 7 7 7 7 7 7 7 7 6 5 3 1 6 12 8 6 5 3 2 2 5 4 2 3 2 1 1 3 3
9 9 9 9 9 9 8 8 9 11 13 11 10 11 10 8 7 7 8 9 8 8 8 8 8 7 7 7 8 8 8 7 7 8 8 8 9 10 8 7 8 7 7 8 6 6 6 6 7 7 8 7 7 6 7 5 7 3 5 14 7 4 5 6 6 4 3 3 4 2 3 4 4 5
11 10 9 8 8 7 8 9 11 12 12 12 11 10 10 9 8 9 8 8 8 9 8 8 8 7 7 8 8 6 6 8 9 9 10 9 9 8 8 8 8 8 7 8 8 7 7 9 8 8 8 9 7 4 4 4 1 1 1 7 12 9 7 7 6 5 3 4 1 1 2 2 1 2
9 9 8 7 8 10 11 11 13 12 12 11 10 9 9 8 9 9 9 9 8 8 8 8 8 8 7 6 7 8 8 8 9 8 8 8 9 9 9 8 7 7 9 8 8 8 9 11 12 14 7 3 5 5 2 1 4 4 4 6 9 13 9 8 6 6 4 2 4 3 3 1 1 3
10 10 8 9 10 11 12 13 13 12 12 11 8 7 7 8 9 10 9 10 8 8 8 8 7 7 8 9 9 9 9 9 8 8 8 8 8 8 9 8 8 7 7 9 8 9 10 7 4 4 4 5 4 3 6 7 7 6 5 5 5 8 13 14 10 7 3 6 5 2 0 1 0 3
9 9 9 10 11 11 11 12 12 12 12 9 8 7 8 9 7 8 8 8 8 8 9 9 8 9 9 8 9 9 8 8 9 9 9 10 9 9 8 8 8 7 8 7 6 6 4 4 4 6 5 6 6 6 7 8 7 6 4 4 5 3 5 9 11 11 9 10 9 6 3 2 3 1
9 9 9 11 12 12 12 12 12 11 10 7 6 7 8 8 9 10 9 9 9 9 9 8 8 8 8 8 8 8 8 8 9 10 10 11 10 10 9 9 8 7 6 7 6 5 3 4 4 6 7 6 6 6 8 7 7 6 7 4 2 1 4 3 3 4 7 11 15 14 11 9 7 2
8 8 10 11 12 12 12 13 12 11 8 9 7 5 7 8 8 8 8 9 8 8 7 8 8 8 9 8 9 11 11 9 9 9 8 7 8 7 7 8 7 7 7 6 6 5 3 4 4 4 4 5 5 7 8 7 7 5 3 3 5 3 2 1 3 6 7 8 10 13 15 14 14 13
Wind_Direction
201 193 196 214 252 281 285 287 262 215 187 182 164 162 161 155 134 298 326 286 259 308 286 358 295 309 357 6 333 329 304 287 292 286 268 264 267 275 279 283 285 286 288 290 292 295 300 307 309 309 309 308 310 316 315 314 321 318 323 326 328 330 331 327 323 318 313 309 303 297 289 280 273 267
216 224 235 193 253 268 298 266 252 195 161 146 161 180 149 144 168 182 202 277 218 263 309 198 271 324 344 349 337 324 306 295 299 281 268 269 268 282 294 299 303 304 305 307 308 315 318 315 316 317 317 325 328 317 314 319 322 326 335 340 343 339 334 331 327 319 313 311 309 308 305 299 290 281
217 244 253 241 248 255 253 274 295 277 143 152 159 147 130 157 141 156 133 351 288 180 271 293 246 264 311 326 318 317 310 306 320 324 311 306 311 320 318 314 311 313 316 318 324 326 331 333 328 322 333 343 332 329 332 337 341 348 344 342 344 339 338 340 335 324 322 317 315 310 308 307 301 293
206 225 242 247 240 241 232 265 255 234 242 167 162 170 172 173 151 141 140 173 267 240 222 256 291 280 277 305 303 305 313 312 328 328 322 315 318 323 316 319 328 327 331 339 350 356 348 326 313 341 5 349 340 352 6 6 2 358 356 354 351 345 346 352 348 337 333 328 320 312 307 307 307 303
203 212 230 246 244 201 206 242 239 230 231 214 201 163 164 172 171 157 158 209 271 293 244 251 263 298 315 311 248 314 311 322 328 333 320 325 329 321 328 334 328 330 342 353 1 353 325 346 14 16 3 351 11 25 21 9 2 358 360 354 353 356 352 346 341 336 334 333 328 322 318 316 313 309
218 209 224 250 253 218 213 230 228 220 213 201 205 199 186 196 199 204 162 216 237 281 311 300 290 291 257 294 276 289 317 318 334 331 329 337 348 332 336 339 324 332 344 355 353 352 12 19 16 12 17 22 32 34 22 12 6 3 357 358 357 352 346 340 337 336 333 331 329 328 327 323 317 313
226 224 227 243 245 240 231 239 238 220 211 193 199 214 197 204 211 190 199 174 236 265 282 264 299 279 314 248 293 308 298 298 300 308 318 335 329 324 331 325 318 325 341 347 352 12 20 25 16 16 41 35 42 42 28 23 19 13 6 359 352 347 343 339 336 336 339 335 330 327 328 325 321 320
219 225 232 239 236 235 233 244 241 232 218 203 212 219 215 206 222 203 191 208 218 233 258 294 256 289 312 292 282 281 292 295 308 298 303 318 314 312 320 310 305 316 336 345 8 19 24 25 24 30 32 35 45 42 33 27 21 14 4 355 349 344 343 342 342 342 341 337 333 330 328 328 325 322
213 221 227 234 226 220 234 248 242 232 228 224 214 225 227 214 226 218 200 215 207 232 254 277 276 276 280 263 290 283 300 328 323 324 327 313 306 306 289 286 296 311 322 358 13 28 22 24 31 29 28 25 34 37 34 26 17 9 360 353 348 346 347 347 346 344 343 340 338 337 338 335 331 329
214 220 225 228 222 222 225 239 240 234 235 230 227 232 235 228 216 232 241 221 217 221 248 251 292 299 272 310 284 277 317 319 322 323 320 329 355 345 337 328 338 325 335 357 12 24 19 22 29 23 24 23 27 31 32 23 14 4 354 351 350 350 349 347 345 346 347 344 343 344 344 346 339 336
226 226 227 224 217 223 226 232 234 231 235 229 237 229 231 221 214 239 249 234 232 233 253 268 241 271 273 233 284 311 360 236 222 267 318 329 302 322 343 318 327 317 331 27 48 36 34 36 26 17 18 21 26 32 29 15 9 359 356 355 352 350 348 347 347 350 351 349 347 347 347 348 346 342
230 230 231 230 224 223 229 228 234 218 231 228 242 238 223 219 213 238 247 250 241 248 247 250 269 244 277 297 271 316 1 336 332 168 204 290 296 317 307 263 291 301 343 357 6 10 22 25 15 14 10 13 22 32 22 5 2 2 358 355 352 349 348 349 352 355 354 352 352 351 352 352 352 350
230 234 233 234 232 229 231 228 229 223 216 211 230 242 209 218 216 233 238 238 242 248 247 268 259 274 286 274 294 315 299 265 270 283 66 261 259 264 284 283 259 239 304 321 17 24 9 26 12 356 6 360 5 20 22 2 356 360 355 353 351 349 348 350 355 358 357 354 353 354 355 354 354 353
229 231 233 236 235 234 236 236 235 234 229 223 219 232 204 215 215 226 233 236 233 238 250 253 262 277 273 275 264 261 249 244 285 318 301 276 287 326 300 283 269 258 20 16 18 13 16 41 357 358 359 338 356 1 13 351 360 358 357 353 352 351 349 351 355 358 358 357 355 355 357 357 357 355
232 234 234 238 244 241 234 238 237 236 234 233 234 239 232 214 207 222 231 240 231 228 240 256 254 248 268 272 252 243 264 239 239 244 235 249 301 298 301 303 307 288 35 47 42 4 4 58 12 327 337 329 339 357 3 338 5 2 359 355 351 350 349 350 355 359 359 1 360 359 358 359 360 1
233 235 235 235 235 236 237 233 236 237 238 237 237 240 244 244 239 228 219 236 245 222 237 253 248 244 252 268 259 256 230 245 227 243 236 238 249 262 243 247 260 265 38 38 28 323 311 7 7 340 316 319 311 330 7 359 4 4 359 355 351 351 350 352 356 358 1 3 3 3 3 0 2 5
234 234 235 239 233 236 234 236 234 231 239 235 234 240 248 254 249 249 251 248 243 234 221 238 258 236 242 256 253 206 211 171 205 206 229 251 246 240 249 244 261 299 83 97 46 311 263 14 4 336 302 304 298 317 0 360 4 359 357 352 351 352 352 355 357 360 0 2 3 4 4 2 360 6
233 233 232 234 240 235 235 233 229 227 230 236 234 236 237 242 251 247 240 242 246 242 238 236 248 254 197 242 246 218 164 170 236 225 247 237 259 250 242 227 206 253 56 198 137 339 292 303 11 324 293 311 303 300 348 3 358 358 352 350 352 353 354 357 359 1 2 1 1 2 4 4 3 8
228 230 229 231 237 241 233 227 221 224 227 226 232 237 241 240 245 245 245 237 232 225 222 234 241 255 241 234 244 217 187 209 221 209 224 223 230 250 359 36 69 11 133 124 107 253 263 303 8 282 281 311 305 283 337 1 359 354 351 349 350 354 356 359 1 3 3 360 358 359 3 4 4 7
225 226 226 227 233 239 238 234 225 224 221 218 230 237 245 251 251 250 239 236 233 226 220 224 236 247 249 240 239 211 200 215 225 227 259 313 227 230 276 249 289 233 258 157 141 200 273 241 126 280 291 330 301 306 340 349 360 352 348 349 349 354 357 1 3 4 3 359 358 0 2 3 3 3
224 224 224 223 230 235 238 237 225 222 215 223 229 236 244 250 258 261 258 230 233 237 235 233 237 246 254 252 239 224 212 209 181 151 209 247 200 213 256 263 231 245 233 245 147 136 287 280 142 290 286 304 289 307 324 343 352 348 346 347 349 354 357 2 5 4 2 359 0 2 4 4 0 3
226 225 221 220 225 232 238 239 230 219 198 216 229 235 240 247 253 260 257 246 241 231 237 243 246 249 255 253 250 251 238 216 186 177 227 220 163 218 217 245 219 264 270 239 145 115 210 307 16 302 293 333 264 277 303 344 340 347 348 347 347 353 356 360 2 3 360 358 2 4 5 6 1 8
229 231 229 227 226 227 235 239 234 217 190 213 223 227 233 242 249 253 245 225 246 240 244 255 249 259 252 247 242 244 237 213 206 213 229 209 186 221 216 212 154 299 268 222 163 146 255 99 300 64 353 4 276 275 294 340 337 345 350 349 343 354 357 357 356 360 356 359 2 3 5 9 8 12
231 232 234 230 228 229 234 239 236 219 192 208 223 218 224 235 248 251 226 223 221 231 222 239 232 242 247 243 237 240 235 215 208 217 224 220 207 216 218 200 194 215 223 212 164 154 208 137 254 71 127 94 317 303 343 322 301 331 346 348 341 349 350 357 354 355 355 358 3 358 6 15 18 8
230 231 229 232 223 221 229 237 238 224 203 210 220 218 222 226 239 248 230 236 216 222 230 236 239 242 246 241 236 232 228 223 217 220 223 219 212 206 210 209 203 231 226 206 169 126 174 167 188 74 37 92 245 327 291 309 291 344 357 355 340 348 351 356 352 357 355 356 4 356 1 14 23 21
229 230 227 229 226 218 221 230 231 224 213 211 215 229 227 234 238 246 241 248 243 234 233 235 238 240 237 238 233 232 230 230 225 219 216 213 214 216 213 204 202 217 212 195 165 148 122 167 186 149 153 132 267 224 304 309 280 303 354 342 343 339 352 346 347 359 2 356 357 359 356 3 16 31
226 226 227 231 228 217 218 222 222 219 216 206 218 229 233 232 236 241 252 245 243 237 232 229 235 234 228 230 235 233 237 235 224 222 218 203 205 218 224 222 209 208 185 163 176 159 136 166 174 152 178 173 179 292 258 285 307 334 354 352 324 326 352 348 353 354 358 353 356 351 353 2 8 16
223 224 225 227 222 216 216 215 215 215 202 205 217 224 231 235 238 224 236 242 237 235 233 232 235 233 223 221 230 229 223 227 219 206 193 196 196 194 196 198 181 187 158 156 166 176 152 141 173 187 150 161 161 175 257 277 281 316 336 316 296 282 0 5 354 353 355 351 351 349 351 2 2 4
222 222 223 224 215 212 210 212 212 208 210 219 225 220 218 214 197 206 214 225 225 230 233 233 235 234 221 215 218 218 216 192 86 108 81 90 109 128 126 127 120 122 135 151 166 172 161 157 168 159 136 157 152 211 167 237 257 309 346 339 334 328 343 1 1 354 347 354 354 355 4 0 6 2
219 220 221 222 214 207 212 206 192 208 215 215 220 223 208 202 204 204 210 219 220 231 234 233 235 236 222 217 222 191 111 146 177 144 134 127 140 144 137 113 76 30 80 174 167 146 138 147 155 156 159 181 170 177 203 185 309 292 340 331 294 297 317 3 354 349 354 350 343 346 348 9 17 14
233 231 228 213 198 199 197 197 204 213 212 185 191 196 201 203 203 205 205 211 217 226 232 236 238 236 228 202 129 143 167 178 185 177 163 165 172 156 152 137 132 102 55 49 54 79 131 150 156 149 159 186 192 204 207 165 251 309 298 295 349 320 309 341 337 347 341 330 323 337 4 15 18 19
226 226 216 189 160 139 121 161 182 208 201 204 193 197 197 204 206 212 220 229 235 239 235 242 240 241 194 189 205 185 178 189 182 177 169 167 171 172 146 128 160 147 136 75 39 23 60 110 168 177 167 167 179 201 121 144 197 226 261 270 275 281 294 306 323 323 330 319 325 4 5 17 13 10
220 222 214 201 177 176 189 189 203 201 199 211 211 207 201 202 196 196 195 212 220 222 223 229 226 227 207 213 201 191 184 199 190 168 173 181 166 177 182 172 166 165 170 190 167 95 36 38 72 136 138 137 153 153 155 217 261 203 214 257 303 288 289 295 303 311 323 351 2 343 7 10 22 16
202 198 207 210 208 197 190 204 206 204 203 207 211 217 211 203 197 199 207 214 222 217 218 222 221 221 211 215 197 192 204 201 179 181 177 182 174 166 184 177 184 185 174 178 182 182 168 107 106 80 79 69 162 179 172 171 230 227 212 229 232 265 265 267 298 311 326 300 298 2 13 358 0 13
201 197 200 208 204 200 200 209 211 202 202 211 211 214 206 203 204 203 210 214 214 216 218 217 216 215 212 214 202 202 203 195 182 176 195 181 177 181 176 180 177 183 184 179 191 187 172 162 136 101 43 3 353 301 236 191 171 221 179 251 222 232 264 255 264 323 325 317 331 34 343 349 354 349
194 197 202 203 198 188 200 212 205 200 206 206 204 201 199 206 198 201 213 214 209 217 215 212 213 213 212 212 208 207 199 182 176 180 183 188 187 188 182 188 181 186 187 189 186 176 172 168 158 146 174 207 196 298 303 224 192 175 173 233 225 216 243 244 283 286 314 293 326 91 54 343 314 319
196 191 199 204 194 188 205 208 203 200 190 190 199 201 204 207 203 204 219 213 235 236 233 219 217 212 213 211 209 201 181 174 181 185 189 191 194 184 181 190 188 185 185 193 182 170 171 168 172 163 153 170 195 222 251 302 266 238 179 202 235 218 221 169 286 290 253 227 284 185 172 204 281 297
204 193 194 197 194 197 206 198 173 178 195 201 204 207 213 212 171 180 179 188 216 224 232 231 232 216 213 201 196 193 183 185 184 184 193 187 183 185 194 195 183 177 187 188 182 180 184 174 173 187 168 174 193 225 263 299 330 244 202 189 200 224 164 157 232 253 263 228 228 235 146 194 242 257
199 199 194 192 189 194 191 172 177 195 208 205 202 209 211 204 194 197 198 211 210 216 222 225 227 219 206 195 196 185 179 179 192 195 193 194 193 193 195 189 182 183 177 191 188 183 175 193 192 186 187 179 185 206 202 197 230 277 210 201 186 158 188 187 222 242 242 257 256 259 258 258 279 276
203 199 199 187 176 165 164 175 190 207 211 210 205 206 208 204 198 204 207 209 213 213 213 216 214 206 202 199 193 185 182 189 194 195 196 193 194 194 190 188 187 181 189 192 188 189 188 204 201 196 193 203 207 181 169 176 225 241 240 224 217 196 188 168 202 191 244 226 158 155 253 353 307 318
199 197 197 166 151 164 174 187 199 208 215 217 206 202 204 198 203 210 210 209 208 210 212 213 207 205 200 184 182 179 186 196 204 199 187 191 187 191 192 184 193 189 191 197 191 188 202 209 210 204 184 122 97 99 83 305 278 287 274 244 214 224 216 194 189 175 212 161 159 177 209 239 284 336
190 195 178 163 167 172 182 195 203 204 215 214 202 191 200 208 217 213 215 220 218 215 214 210 199 186 187 186 183 182 196 196 191 190 187 184 186 195 195 191 200 194 195 198 196 201 214 206 203 162 136 130 127 161 226 225 240 257 255 271 279 220 217 223 226 220 182 152 143 134 79 348 359 321
182 180 162 165 171 178 189 204 201 203 211 206 199 195 203 212 206 207 214 215 214 215 214 208 196 194 195 189 186 187 192 192 188 189 188 185 186 188 192 200 206 197 200 207 205 213 185 138 146 150 155 166 199 182 218 227 225 239 271 281 270 264 233 223 225 231 237 229 216 201 167 165 131 272
181 170 159 165 171 179 195 204 205 208 201 178 183 187 197 205 208 206 202 206 209 213 211 204 197 192 194 189 173 184 216 207 193 188 187 188 188 187 187 193 197 195 199 207 206 219 166 147 162 154 151 198 193 187 221 227 235 229 235 259 273 253 242 237 219 240 245 245 243 242 233 219 213 230
177 161 156 165 170 178 190 205 208 204 180 182 193 183 188 198 206 202 204 207 212 213 202 199 196 198 192 186 176 189 205 211 199 192 177 174 182 182 183 184 186 189 197 202 191 218 178 159 153 168 190 203 184 197 214 206 221 226 227 227 261 243 212 180 193 229 244 266 236 219 233 234 236 241